San Jose, CA

8:05 AM PDT on March 28, 2017 (GMT -0700)
San Jose International

Weather History for KSJC - May, 2014

Change the Weather History Date:

Tuesday, May 13, 2014

  Actual Average Record
Temperature  
Mean Temperature 75 °F 64 °F  
Max Temperature 95 °F 75 °F 99 °F (1976)
Min Temperature 55 °F 52 °F 37 °F (1896)
Degree Days  
Heating Degree Days 0 3  
Month to date heating degree days 36 44  
Since 1 July heating degree days 1874 1948  
Cooling Degree Days 10 2  
Month to date cooling degree days 27 15  
Year to date cooling degree days 55 34  
Growing Degree Days 24 (Base 50)    
Moisture  
Dew Point 38 °F    
Average Humidity 32    
Maximum Humidity 55    
Minimum Humidity 9    
Precipitation  
Precipitation 0.00 in 0.02 in 0.42 in (1902)
Month to date precipitation T 0.26  
Year to date precipitation 4.76 9.67  
Since 1 July precipitation 6.32  
Sea Level Pressure  
Sea Level Pressure 30.09 in    
Wind  
Wind Speed 5 mph (WNW)    
Max Wind Speed 18 mph    
Max Gust Speed 25 mph    
Visibility 10 miles    
Events      
T = Trace of Precipitation, MM = Missing Value Source: NWS Daily Summary

Daily Weather History Graph

Daily Weather History Graph

Search for Another Location

Airport or City:

Trip Planner

Search our weather history database for the weather conditions in past years. The results will help you decide how hot, cold, wet, or windy it might be!

Date:

Astronomy

May. 13, 2014 Rise Set
Actual Time 6:00 AM PDT 8:08 PM PDT
Civil Twilight 5:31 AM PDT 8:37 PM PDT
Nautical Twilight 4:56 AM PDT 9:12 PM PDT
Astronomical Twilight 4:17 AM PDT 9:51 PM PDT
Moon 7:16 PM PDT (5/13) 5:18 AM PDT (5/13)
Length of Visible Light 15h 05m
Length of Day
14h 07m
Waxing Gibbous, 99% of the Moon is Illuminated
May 13
Waxing Gibbous
May 14
Full
May 21
Last Quarter
May 28
New
Jun 5
First Quarter

Hourly Weather History & Observations

Time (PDT) Temp. Dew Point Humidity Pressure Visibility Wind Dir Wind Speed Gust Speed Precip Events Conditions
12:53 AM 64.0 °F 41.0 °F 43% 30.08 in 10.0 mi ESE 3.5 mph - N/A   Clear
1:53 AM 63.0 °F 41.0 °F 45% 30.08 in 10.0 mi Calm Calm - N/A   Clear
2:53 AM 60.1 °F 42.1 °F 51% 30.07 in 10.0 mi ESE 3.5 mph - N/A   Clear
3:53 AM 55.0 °F 39.0 °F 55% 30.07 in 10.0 mi ESE 5.8 mph - N/A   Clear
4:53 AM 59.0 °F 39.0 °F 48% 30.06 in 10.0 mi Calm Calm - N/A   Clear
5:53 AM 57.2 °F 39.2 °F 51% 30.08 in 10.0 mi Calm Calm - N/A   Partly Cloudy
6:53 AM 59.0 °F 39.0 °F 48% 30.09 in 10.0 mi Calm Calm - N/A   Partly Cloudy
7:53 AM 64.9 °F 37.9 °F 37% 30.11 in 10.0 mi Calm Calm - N/A   Partly Cloudy
8:53 AM 71.6 °F 37.4 °F 29% 30.12 in 10.0 mi Calm Calm - N/A   Partly Cloudy
9:53 AM 77.0 °F 35.1 °F 22% 30.12 in 10.0 mi Calm Calm - N/A   Partly Cloudy
10:53 AM 82.0 °F 34.0 °F 18% 30.12 in 10.0 mi Calm Calm - N/A   Partly Cloudy
11:53 AM 84.9 °F 35.1 °F 17% 30.11 in 10.0 mi WNW 3.5 mph - N/A   Partly Cloudy
12:53 PM 88.0 °F 33.1 °F 14% 30.10 in 10.0 mi Calm Calm - N/A   Partly Cloudy
1:53 PM 90.0 °F 30.9 °F 12% 30.08 in 10.0 mi Calm Calm - N/A   Clear
2:53 PM 91.9 °F 25.0 °F 9% 30.06 in 10.0 mi Calm Calm - N/A   Clear
3:53 PM 93.0 °F 37.0 °F 14% 30.05 in 10.0 mi WNW 16.1 mph - N/A   Clear
4:53 PM 93.0 °F 32.0 °F 12% 30.04 in 10.0 mi West 16.1 mph - N/A   Clear
5:53 PM 89.1 °F 41.0 °F 19% 30.05 in 10.0 mi WNW 17.3 mph - N/A   Clear
6:53 PM 88.0 °F 37.0 °F 16% 30.06 in 10.0 mi NW 11.5 mph - N/A   Partly Cloudy
7:53 PM 82.9 °F 44.1 °F 25% 30.07 in 10.0 mi NNW 10.4 mph - N/A   Partly Cloudy
8:53 PM 77.0 °F 39.9 °F 26% 30.09 in 10.0 mi WNW 10.4 mph - N/A   Partly Cloudy
9:53 PM 73.0 °F 41.0 °F 31% 30.12 in 10.0 mi WNW 8.1 mph - N/A   Clear
10:53 PM 72.0 °F 43.0 °F 35% 30.13 in 10.0 mi WSW 6.9 mph - N/A   Clear
11:53 PM 70.0 °F 44.1 °F 39% 30.14 in 10.0 mi WSW 3.5 mph - N/A   Clear